Regional Weather Roundup
Issued by NWS

Home | Current Version | Previous Version | Graphics & Text | Print | Product List | Glossary On
Versions: 1 2 3 4 5 6 7 8 9 10 11 12 13 14 15 16 17 18 19 20 21 22 23 24 25 26 27 28 29 30 31 32 33 34 35 36 37 38 39 40 41 42 43 44 45 46 47 48 49 50
000
ASUS45 KCYS 202210
RWRWY

WYOMING REGIONAL WEATHER ROUNDUP
NATIONAL WEATHER SERVICE CHEYENNE WY
400 PM MDT WED AUG 20 2014

NOTE:  "FAIR" INDICATES FEW OR NO CLOUDS BELOW 12,000 FEET
WITH NO SIGNIFICANT WEATHER AND/OR OBSTRUCTIONS TO VISIBILITY.

WYZ001-202300-
YELLOWSTONE NATIONAL PARK

CITY           SKY/WX    TMP DP  RH WIND       PRES   REMARKS
LK YELLOWSTONE   N/A     58  44  60 VRB3      30.12F
W YELLOWSTONE  NOT AVBL

$$
WYZ002>013-054>058-071-098>099-202300-
NORTHERN WYOMING

CITY           SKY/WX    TMP DP  RH WIND       PRES   REMARKS
JACKSON        MOSUNNY   64  48  55 CALM      30.05S
CODY           CLOUDY    66  46  48 W15       29.95R
GREYBULL       MOSUNNY   85  42  22 N8        29.82F
WORLAND        MOSUNNY   81  41  24 NW6       29.84F
SHERIDAN       MOSUNNY   81  46  29 NW12      29.86S
BUFFALO        MOSUNNY   74  44  34 N16       29.92S
GILLETTE       MOSUNNY   79  46  31 NW13G28   29.87R
HULETT         FAIR      82  45  26 MISG      29.85
NEWCASTLE      FAIR      82  39  21 NW12      29.82

$$
WYZ014>020-022>026-101>103-202300-
CENTRAL WYOMING

CITY           SKY/WX    TMP DP  RH WIND       PRES   REMARKS
BIG PINEY      PTSUNNY   71  39  31 NW10      30.09F
PINEDALE       MOCLDY    66  43  42 SE7       30.09F
DUBOIS         FAIR      68  34  28 W24       30.05S
LANDER         CLOUDY    80  37  21 NE6       29.92S
RIVERTON       MOSUNNY   81  36  19 N6        29.92F
CASPER         PTSUNNY   84  35  17 W8        29.90S
DOUGLAS        PTSUNNY   82  44  26 N12G22    29.89S

$$
WYZ021-027>030-104>119-202300-
SOUTHERN WYOMING

CITY           SKY/WX    TMP DP  RH WIND       PRES   REMARKS
EVANSTON       PTSUNNY   71  44  37 W17G26    30.10F
KEMMERER       LGT RAIN  64  45  48 CALM      30.12S
FORT BRIDGER   CLOUDY    67  42  39 SW7       30.12F
ROCK SPRINGS   CLOUDY    64  44  48 W6        30.10F
DIXON          FAIR      68  52  58 E3        30.12F
RAWLINS        PTSUNNY   69  46  43 S17       30.06F
SARATOGA       MOCLDY    64  46  52 MISG      30.12F
LARAMIE        CLOUDY    66  42  41 W25G36    30.10R
CHEYENNE       MOSUNNY   80  44  27 W18G28    29.99R
TORRINGTON     MOSUNNY   89  45  21 NW12      29.82F
PINE BLUFFS    MOCLDY    82  43  24 W8G16     29.91F

$$



USA.gov is the U.S. government's official web portal to all federal, state and local government web resources and services.